User: anonymous   Login
Location: Unspecified
(0.0000°N, 0.0000°E)
Time: 04:09:13
(UTC+00:00)
Language:

Hispasat 1B - Orbit

View from above orbital plane
View from above orbital plane
View from above satellite
View from above satellite

Ground track
Ground track

The orbit data is extracted from the following two-line orbital elements,

1 22723U 93048A   18291.82412744 +.00000056 +00000-0 +00000-0 0  9994
2 22723 011.3906 033.0508 0009572 230.2837 127.2074 00.99717321091928
Epoch (UTC): 18 October 2018 19:46:44
Eccentricity: 0.0009572
inclination: 11.3906°
perigee height: 35902 km
apogee height: 35983 km
right ascension of ascending node: 33.0508°
argument of perigee: 230.2837°
revolutions per day: 0.99717321
mean anomaly at epoch: 127.2074°
orbit number at epoch: 9192

The dashed part of the orbit path shows where the satellite is in the earth's shadow,  

DLR